Voltar ao catálogo

STARLINK-4091

AtivoComunicaçõesVLEO
NORAD 52830·PAYLOAD·🇺🇸 United States

Lançado Jun 17, 2022 de Cape Canaveral Space Force Station

Loading…

Próximas Passagens (próximas 24 horas)

TLE

AtualizadoSource: CelesTrak SupGP

Época: Sep 14, 2026, 22:00 UTC

1 52830C 22062A   26257.91715278  .00042444  00000+0  13650-2 0  2573
2 52830  53.1573 254.8237 0001181  97.0264 146.3215 15.31677684    15

Acompanhe STARLINK-4091 em tempo real com AllMySat

Download on the App Store